Weather History for KBAB - January, 2013

Change the Weather History Date:

Wednesday, January 2, 2013

  Actual Average Record
Temperature  
Mean Temperature 40 °F -  
Max Temperature 52 °F 53 °F 63 °F (2014)
Min Temperature 28 °F 40 °F 28 °F (2013)
Degree Days  
Heating Degree Days 25    
Moisture  
Dew Point 30 °F    
Average Humidity 78    
Maximum Humidity 96    
Minimum Humidity 43    
Precipitation  
Precipitation 0.00 in - - ()
Sea Level Pressure  
Sea Level Pressure 30.22 in    
Wind  
Wind Speed 4 mph (NNW)    
Max Wind Speed 9 mph    
Max Gust Speed -    
Visibility 8 miles    
Events      
Averages and records for this station are not official NWS values.
T = Trace of Precipitation, MM = Missing Value Source: NWS Daily Summary

Daily Weather History Graph

Daily Weather History Graph

Search for Another Location

Airport or City:

Trip Planner

Search our weather history database for the weather conditions in past years. The results will help you decide how hot, cold, wet, or windy it might be!

Date:

Astronomy

Jan. 02, 2013 Rise Set
Actual Time 7:25 AM PST 4:54 PM PST
Civil Twilight 6:55 AM PST 5:24 PM PST
Nautical Twilight 6:21 AM PST 5:58 PM PST
Astronomical Twilight 5:49 AM PST 6:30 PM PST
Moon 10:30 PM PST (1/2) 10:12 AM PST (1/2)
Length of Visible Light 10h 29m
Length of Day
9h 29m
Waning Gibbous, 74% of the Moon is Illuminated
Jan 2
Waning Gibbous
Jan 4
Last Quarter
Jan 11
New
Jan 18
First Quarter
Jan 26
Full

Hourly Weather History & Observations

Time (PST) Temp. Windchill Dew Point Humidity Pressure Visibility Wind Dir Wind Speed Gust Speed Precip Events Conditions
12:08 AM 32.0 °F 26.4 °F 28.4 °F 87% 30.27 in 3.0 mi ENE 5.8 mph - N/A   Clear
12:38 AM 32.0 °F 25.6 °F 28.4 °F 87% 30.26 in 2.5 mi East 6.9 mph - N/A   Clear
12:58 AM 32.0 °F - 28.4 °F 87% 30.27 in 3.0 mi Calm Calm - N/A   Clear
1:48 AM 32.0 °F 26.4 °F 28.4 °F 87% 30.26 in 2.5 mi NE 5.8 mph - N/A   Clear
1:58 AM 32.9 °F 27.5 °F 29.3 °F 87% 30.26 in 3.0 mi NE 5.8 mph - N/A   Clear
2:58 AM 33.1 °F 27.7 °F 27.9 °F 81% 30.25 in 3.0 mi NE 5.8 mph - N/A   Haze
3:38 AM 32.0 °F 28.7 °F 26.6 °F 80% 30.23 in 7.0 mi WSW 3.5 mph - N/A   Clear
3:48 AM 30.2 °F 24.3 °F 26.6 °F 86% 30.23 in 5.0 mi West 5.8 mph - N/A   Clear
3:58 AM 29.1 °F 22.1 °F 26.1 °F 88% 30.23 in 8.0 mi West 6.9 mph - N/A   Clear
4:28 AM 30.2 °F 22.6 °F 28.4 °F 93% 30.23 in 10.0 mi WSW 8.1 mph - N/A   Clear
4:58 AM 29.1 °F 25.4 °F 28.0 °F 96% 30.22 in 10.0 mi WSW 3.5 mph - N/A   Clear
5:18 AM 30.2 °F - 28.4 °F 93% 30.23 in 9.0 mi Calm Calm - N/A   Clear
5:58 AM 29.1 °F 21.3 °F 26.8 °F 91% 30.24 in 10.0 mi North 8.1 mph - N/A   Clear
6:58 AM 30.7 °F 24.9 °F 28.0 °F 90% 30.24 in 10.0 mi NE 5.8 mph - N/A   Clear
7:58 AM 28.4 °F - 26.6 °F 93% 30.24 in 10.0 mi Calm Calm - N/A   Clear
8:58 AM 36.0 °F - 31.1 °F 82% 30.25 in 10.0 mi North 1.2 mph - N/A   Clear
9:58 AM 45.3 °F 41.1 °F 35.6 °F 69% 30.26 in 10.0 mi WSW 8.1 mph - N/A   Clear
10:58 AM 44.6 °F 39.7 °F 36.3 °F 73% 30.26 in 10.0 mi WSW 9.2 mph - N/A   Clear
11:58 AM 48.9 °F - 32.4 °F 53% 30.24 in 10.0 mi WSW 4.6 mph - N/A   Clear
12:58 PM 51.1 °F - 29.1 °F 43% 30.20 in 10.0 mi West 2.3 mph - N/A   Clear
1:58 PM 52.5 °F - 30.6 °F 43% 30.19 in 10.0 mi SW 4.6 mph - N/A   Clear
2:58 PM 52.2 °F - 31.6 °F 46% 30.19 in 10.0 mi Calm Calm - N/A   Clear
3:58 PM 52.5 °F - 31.3 °F 44% 30.19 in 10.0 mi Variable 1.2 mph - N/A   Clear
4:58 PM 47.8 °F - 33.3 °F 57% 30.18 in 10.0 mi NNE 2.3 mph - N/A   Clear
5:58 PM 41.9 °F - 32.2 °F 68% 30.17 in 10.0 mi NE 1.2 mph - N/A   Clear
6:58 PM 39.6 °F - 32.2 °F 75% 30.17 in 10.0 mi Calm Calm - N/A   Clear
7:58 PM 35.1 °F 32.2 °F 30.7 °F 84% 30.17 in 10.0 mi East 3.5 mph - N/A   Clear
8:58 PM 34.9 °F - 30.6 °F 84% 30.18 in 10.0 mi West 2.3 mph - N/A   Clear
9:58 PM 34.7 °F 31.8 °F 30.9 °F 86% 30.19 in 10.0 mi East 3.5 mph - N/A   Clear
10:58 PM 32.9 °F 27.5 °F 30.2 °F 90% 30.20 in 10.0 mi ENE 5.8 mph - N/A   Clear
11:58 PM 32.9 °F - 29.8 °F 88% 30.20 in 10.0 mi Calm Calm - N/A   Clear